| time (UTC) | temp F | wind direction | speed MPH | gust MPH | rain 1hr in | rain 24hr in | rain mn in | humidity % | barometer mb |
| 20260506190005 | 38 | 163 | 0.0 | 0.0 | 0.00 | 0.30 | 0.16 | 91 | 1011.4 |
| 20260506185004 | 38 | 163 | 0.0 | 0.0 | 0.00 | 0.30 | 0.16 | 91 | 1011.5 |
| 20260506184004 | 38 | 163 | 0.0 | 0.0 | 0.00 | 0.30 | 0.16 | 91 | 1011.4 |
| 20260506183005 | 38 | 163 | 0.0 | 0.0 | 0.00 | 0.31 | 0.16 | 92 | 1011.3 |
| 20260506182005 | 38 | 163 | 0.0 | 0.0 | 0.00 | 0.31 | 0.16 | 92 | 1011.3 |
| 20260506181006 | 37 | 163 | 0.0 | 0.0 | 0.01 | 0.31 | 0.16 | 92 | 1011.3 |
| 20260506180006 | 37 | 163 | 0.0 | 0.0 | 0.01 | 0.31 | 0.16 | 92 | 1011.3 |
| 20260506174006 | 37 | 163 | 0.0 | 0.0 | 0.01 | 0.31 | 0.16 | 91 | 1011.2 |
| 20260506172006 | 37 | 208 | 0.0 | 0.0 | 0.01 | 0.31 | 0.16 | 91 | 1011.0 |
| 20260506171006 | 38 | 220 | 0.0 | 0.0 | 0.02 | 0.31 | 0.15 | 91 | 1011.0 |
| 20260506170005 | 38 | 210 | 0.0 | 0.0 | 0.03 | 0.31 | 0.15 | 91 | 1011.0 |
| 20260506165006 | 38 | 213 | 0.0 | 0.0 | 0.03 | 0.32 | 0.15 | 91 | 1011.0 |
| 20260506164005 | 38 | 201 | 0.0 | 0.0 | 0.03 | 0.32 | 0.15 | 90 | 1011.0 |
| 20260506163006 | 39 | 244 | 0.0 | 0.0 | 0.03 | 0.32 | 0.15 | 89 | 1010.8 |
| 20260506162006 | 39 | 244 | 0.0 | 0.0 | 0.03 | 0.32 | 0.15 | 88 | 1010.6 |
| 20260506161005 | 39 | 242 | 0.0 | 0.0 | 0.01 | 0.30 | 0.13 | 88 | 1010.6 |
| 20260506160006 | 39 | 109 | 0.0 | 0.0 | 0.00 | 0.29 | 0.12 | 87 | 1010.6 |
| 20260506155006 | 40 | 109 | 0.0 | 0.0 | 0.00 | 0.30 | 0.12 | 87 | 1010.5 |
| 20260506153006 | 39 | 240 | 0.0 | 0.0 | 0.00 | 0.30 | 0.12 | 87 | 1010.5 |
| 20260506152005 | 40 | 237 | 0.0 | 0.0 | 0.00 | 0.30 | 0.12 | 87 | 1010.4 |
| 20260506151005 | 40 | 248 | 0.0 | 0.0 | 0.00 | 0.31 | 0.12 | 86 | 1010.3 |
| 20260506145006 | 41 | 269 | 0.0 | 0.0 | 0.00 | 0.33 | 0.12 | 85 | 1010.1 |
| 20260506144006 | 42 | 229 | 0.0 | 0.0 | 0.00 | 0.33 | 0.12 | 86 | 1010.2 |
| 20260506143005 | 42 | 229 | 0.0 | 0.0 | 0.00 | 0.33 | 0.12 | 86 | 1010.1 |
| 20260506140006 | 42 | 173 | 0.0 | 0.0 | 0.01 | 0.33 | 0.12 | 89 | 1010.0 |
| 20260506135006 | 42 | 185 | 0.0 | 0.0 | 0.01 | 0.33 | 0.12 | 90 | 1009.9 |
| 20260506134006 | 41 | 202 | 0.0 | 0.0 | 0.02 | 0.34 | 0.12 | 91 | 1010.0 |
| 20260506133005 | 40 | 234 | 0.0 | 0.0 | 0.02 | 0.36 | 0.12 | 91 | 1009.8 |
| 20260506132005 | 40 | 237 | 0.0 | 0.0 | 0.02 | 0.36 | 0.12 | 91 | 1009.9 |
| 20260506131006 | 39 | 237 | 0.0 | 0.0 | 0.02 | 0.36 | 0.12 | 91 | 1009.8 |
| 20260506130006 | 40 | 241 | 0.0 | 0.0 | 0.02 | 0.35 | 0.11 | 90 | 1009.7 |
| 20260506125006 | 40 | 294 | 0.0 | 0.0 | 0.02 | 0.35 | 0.11 | 89 | 1009.7 |
| 20260506124005 | 41 | 193 | 0.0 | 0.0 | 0.01 | 0.35 | 0.10 | 90 | 1009.7 |
| 20260506123005 | 41 | 191 | 0.0 | 0.0 | 0.00 | 0.35 | 0.09 | 91 | 1009.6 |
| 20260506122005 | 40 | 200 | 0.0 | 0.0 | 0.00 | 0.35 | 0.09 | 90 | 1009.6 |
| 20260506121005 | 41 | 207 | 0.0 | 0.0 | 0.01 | 0.35 | 0.09 | 90 | 1009.6 |
| 20260506120005 | 41 | 142 | 0.0 | 0.0 | 0.01 | 0.35 | 0.09 | 90 | 1009.6 |
| 20260506115006 | 41 | 142 | 0.0 | 0.0 | 0.01 | 0.35 | 0.09 | 91 | 1009.4 |
| 20260506113006 | 40 | 136 | 0.0 | 0.0 | 0.02 | 0.35 | 0.09 | 90 | 1009.3 |
| 20260506112005 | 40 | 128 | 0.0 | 0.0 | 0.02 | 0.35 | 0.09 | 88 | 1009.2 |
| 20260506111005 | 41 | 107 | 0.0 | 0.0 | 0.01 | 0.35 | 0.09 | 88 | 1009.0 |
| 20260506110006 | 41 | 117 | 0.0 | 0.0 | 0.01 | 0.35 | 0.09 | 90 | 1008.7 |
| 20260506105006 | 41 | 144 | 0.0 | 0.0 | 0.02 | 0.35 | 0.09 | 92 | 1008.7 |
| 20260506103005 | 40 | 236 | 0.0 | 0.0 | 0.02 | 0.34 | 0.08 | 90 | 1008.7 |
| 20260506102005 | 40 | 236 | 0.0 | 0.0 | 0.03 | 0.34 | 0.08 | 91 | 1008.6 |
| 20260506101005 | 40 | 234 | 0.0 | 0.0 | 0.03 | 0.34 | 0.08 | 90 | 1008.5 |
| 20260506095005 | 40 | 306 | 0.0 | 0.0 | 0.02 | 0.33 | 0.06 | 89 | 1008.4 |
| 20260506094005 | 41 | 132 | 0.0 | 0.0 | 0.01 | 0.32 | 0.06 | 90 | 1008.4 |
| 20260506093005 | 41 | 173 | 0.0 | 0.0 | 0.01 | 0.32 | 0.06 | 91 | 1008.2 |
| 20260506092005 | 40 | 207 | 0.0 | 0.0 | 0.00 | 0.31 | 0.05 | 91 | 1008.2 |
| 20260506091005 | 40 | 205 | 0.0 | 0.0 | 0.00 | 0.31 | 0.05 | 91 | 1008.2 |
| 20260506090006 | 40 | 155 | 0.0 | 0.0 | 0.00 | 0.31 | 0.05 | 91 | 1008.2 |
| 20260506085006 | 40 | 154 | 0.0 | 0.0 | 0.00 | 0.31 | 0.05 | 91 | 1008.1 |
| 20260506084005 | 40 | 154 | 0.0 | 0.0 | 0.00 | 0.31 | 0.05 | 90 | 1008.0 |
| 20260506083005 | 40 | 154 | 0.0 | 0.0 | 0.00 | 0.31 | 0.05 | 90 | 1008.0 |
| 20260506082006 | 40 | 150 | 0.0 | 0.0 | 0.00 | 0.31 | 0.05 | 91 | 1007.9 |
| 20260506081006 | 40 | 181 | 0.0 | 0.0 | 0.00 | 0.32 | 0.05 | 91 | 1007.8 |
| 20260506073005 | 38 | 189 | 0.0 | 0.0 | 0.00 | 0.35 | 0.05 | 92 | 1007.6 |
| 20260506072005 | 38 | 195 | 0.0 | 0.0 | 0.00 | 0.37 | 0.05 | 91 | 1007.5 |
| 20260506071005 | 38 | 195 | 0.0 | 0.0 | 0.00 | 0.37 | 0.05 | 91 | 1007.4 |
| 20260506062005 | 37 | 286 | 0.0 | 0.0 | 0.00 | 0.37 | 0.05 | 91 | 1007.1 |
| 20260506051005 | 37 | 286 | 0.0 | 0.0 | 0.00 | 0.37 | 0.05 | 89 | 1006.4 |
| 20260506045005 | 38 | 286 | 0.0 | 0.0 | 0.00 | 0.37 | 0.05 | 90 | 1006.0 |
| 20260506044005 | 38 | 286 | 0.0 | 0.0 | 0.00 | 0.37 | 0.05 | 91 | 1006.0 |
| 20260506043005 | 37 | 286 | 0.0 | 0.0 | 0.00 | 0.37 | 0.05 | 90 | 1005.9 |
| 20260506041005 | 37 | 286 | 0.0 | 0.0 | 0.00 | 0.37 | 0.05 | 91 | 1005.8 |
| 20260506040005 | 37 | 286 | 0.0 | 0.0 | 0.00 | 0.37 | 0.05 | 90 | 1005.7 |
| 20260506035005 | 37 | 286 | 0.0 | 0.0 | 0.00 | 0.37 | 0.05 | 90 | 1005.6 |
| 20260506034005 | 37 | 286 | 0.0 | 0.0 | 0.00 | 0.37 | 0.05 | 90 | 1005.4 |
| 20260506033005 | 36 | 286 | 0.0 | 0.0 | 0.00 | 0.37 | 0.05 | 91 | 1005.3 |
| 20260506031005 | 36 | 286 | 0.0 | 0.0 | 0.00 | 0.37 | 0.05 | 91 | 1005.3 |
| 20260506030005 | 36 | 286 | 0.0 | 0.0 | 0.00 | 0.37 | 0.05 | 91 | 1005.2 |
| 20260506024005 | 36 | 286 | 0.0 | 0.0 | 0.01 | 0.37 | 0.05 | 90 | 1005.1 |
| 20260506022005 | 36 | 286 | 0.0 | 0.0 | 0.01 | 0.37 | 0.05 | 90 | 1004.9 |
| 20260506020005 | 36 | 286 | 0.0 | 0.0 | 0.01 | 0.37 | 0.05 | 91 | 1004.7 |
| 20260506015005 | 36 | 286 | 0.0 | 0.0 | 0.01 | 0.37 | 0.05 | 91 | 1004.7 |
| 20260506014005 | 36 | 286 | 0.0 | 0.0 | 0.00 | 0.36 | 0.04 | 92 | 1004.6 |
| 20260506011005 | 35 | 286 | 0.0 | 0.0 | 0.00 | 0.36 | 0.04 | 92 | 1004.3 |
| 20260506010005 | 35 | 286 | 0.0 | 0.0 | 0.00 | 0.36 | 0.04 | 92 | 1004.3 |
| 20260506005005 | 35 | 286 | 0.0 | 0.0 | 0.00 | 0.36 | 0.04 | 91 | 1004.2 |
| 20260506004005 | 35 | 286 | 0.0 | 0.0 | 0.00 | 0.36 | 0.04 | 91 | 1004.1 |
| 20260506003005 | 35 | 286 | 0.0 | 0.0 | 0.00 | 0.36 | 0.04 | 91 | 1004.0 |
| 20260506002005 | 35 | 286 | 0.0 | 0.0 | 0.00 | 0.36 | 0.04 | 91 | 1003.9 |
| 20260506000005 | 35 | 286 | 0.0 | 0.0 | 0.00 | 0.36 | 0.04 | 91 | 1003.9 |
| 20260505235005 | 35 | 286 | 0.0 | 0.0 | 0.00 | 0.37 | 0.04 | 91 | 1003.8 |
| 20260505234005 | 35 | 286 | 0.0 | 0.0 | 0.01 | 0.37 | 0.04 | 90 | 1003.8 |
| 20260505233005 | 35 | 286 | 0.0 | 0.0 | 0.01 | 0.37 | 0.04 | 90 | 1003.7 |
| 20260505231004 | 36 | 286 | 0.0 | 0.0 | 0.03 | 0.37 | 0.04 | 90 | 1003.7 |
| 20260505224005 | 36 | 286 | 0.0 | 0.0 | 0.07 | 0.36 | 0.03 | 91 | 1003.6 |
| 20260505223005 | 36 | 286 | 0.0 | 0.0 | 0.09 | 0.36 | 0.03 | 91 | 1003.5 |
| 20260505222005 | 36 | 286 | 0.0 | 0.0 | 0.12 | 0.35 | 0.02 | 91 | 1003.5 |
| 20260505221005 | 36 | 286 | 0.0 | 0.0 | 0.12 | 0.34 | 0.01 | 91 | 1003.4 |
| 20260505220005 | 35 | 286 | 0.0 | 0.0 | 0.12 | 0.33 | 0.00 | 91 | 1003.4 |
| 20260505215005 | 35 | 286 | 0.0 | 0.0 | 0.12 | 0.32 | 0.32 | 91 | 1003.4 |
| 20260505214005 | 35 | 286 | 0.0 | 0.0 | 0.09 | 0.29 | 0.29 | 92 | 1003.3 |
| 20260505213004 | 35 | 286 | 0.0 | 0.0 | 0.09 | 0.28 | 0.28 | 92 | 1003.3 |
| 20260505212005 | 34 | 213 | 0.0 | 0.0 | 0.05 | 0.24 | 0.24 | 91 | 1003.2 |
| 20260505210004 | 35 | 213 | 0.0 | 0.0 | 0.02 | 0.21 | 0.21 | 91 | 1003.3 |
| 20260505205005 | 36 | 213 | 0.0 | 0.0 | 0.02 | 0.20 | 0.20 | 91 | 1003.2 |
| 20260505204005 | 36 | 213 | 0.0 | 0.0 | 0.01 | 0.20 | 0.20 | 91 | 1003.1 |
| 20260505203005 | 36 | 213 | 0.0 | 0.0 | 0.00 | 0.19 | 0.19 | 92 | 1003.1 |
| 20260505202005 | 36 | 213 | 0.0 | 0.0 | 0.00 | 0.19 | 0.19 | 92 | 1003.1 |
| 20260505201005 | 36 | 213 | 0.0 | 0.0 | 0.00 | 0.19 | 0.19 | 91 | 1003.0 |
| 20260505200004 | 37 | 211 | 0.0 | 0.0 | 0.00 | 0.19 | 0.19 | 91 | 1003.0 |
| 20260505195005 | 37 | 211 | 0.0 | 0.0 | 0.00 | 0.19 | 0.19 | 91 | 1003.0 |
| 20260505194004 | 37 | 211 | 0.0 | 0.0 | 0.00 | 0.19 | 0.19 | 91 | 1003.1 |
| 20260505193004 | 37 | 211 | 0.0 | 0.0 | 0.01 | 0.19 | 0.19 | 91 | 1003.1 |
| 20260505192005 | 37 | 211 | 0.0 | 0.0 | 0.01 | 0.19 | 0.19 | 91 | 1003.2 |
| 20260505191005 | 37 | 211 | 0.0 | 0.0 | 0.01 | 0.19 | 0.19 | 91 | 1003.1 |